User: anonymous   Login
Location: Unspecified
(0.0000°N, 0.0000°E)
Time: 00:08:30
(UTC+00:00)
Language:

ALMASAT-1 - Orbit

View from above orbital plane
View from above orbital plane
View from above satellite
View from above satellite

Ground track
Ground track

The orbit data is extracted from the following two-line orbital elements,

1 38078U 12006B   17264.98012088 +.00019500 +36844-5 +21401-3 0  9997
2 38078 069.4348 231.1726 0292371 148.5846 213.3163 15.26281740299537
Epoch (UTC): 21 September 2017 23:31:22
Eccentricity: 0.0292371
inclination: 69.4348°
perigee height: 286 km
apogee height: 687 km
right ascension of ascending node: 231.1726°
argument of perigee: 148.5846°
revolutions per day: 15.26281740
mean anomaly at epoch: 213.3163°
orbit number at epoch: 29953

The dashed part of the orbit path shows where the satellite is in the earth's shadow,  

DLR